RH
4 5 5 6 8 10 10 10 11 10 10 11 13 14 15 16 16 16 16 16 13 13 14 16 18 18 18 18 19 17 13 12 9 8 11 16 17 15 13 11 9 8 10 13 16 16 14 11 10 10 10 12 12 15 19 19 19 18 18 18 16 17 18 17 15 18 19 20 24 28 34 32 29 33 33 30 32 34 31 30 32 33 35 38 38 38 38 36
4 5 6 9 11 12 13 13 13 13 12 13 13 14 14 15 16 16 16 15 14 15 17 18 17 17 18 18 18 17 14 11 9 10 16 21 19 17 15 12 10 7 7 8 8 7 7 7 6 6 7 10 13 16 19 20 20 20 20 16 15 17 18 19 19 21 23 26 26 28 35 33 30 33 34 30 28 30 31 33 36 38 40 42 43 43 41 39
4 6 9 12 14 14 15 15 15 15 15 15 13 13 14 15 16 17 17 16 17 18 20 20 19 19 20 20 16 15 16 12 11 15 20 22 21 20 18 15 13 11 10 10 10 11 11 9 8 8 8 10 15 17 19 21 21 24 22 15 18 22 21 24 26 28 32 32 27 28 35 34 33 36 35 33 29 30 35 38 43 44 44 45 47 48 48 46
5 9 13 14 15 15 16 17 18 18 18 17 15 14 13 15 17 17 18 18 19 20 20 20 17 18 20 17 11 11 15 15 16 22 21 20 21 22 21 18 16 14 13 14 15 15 15 13 11 11 10 14 19 19 20 23 24 26 23 18 23 26 23 28 33 35 36 34 30 29 33 32 34 38 35 33 31 33 39 44 49 49 47 48 49 49 49 48
8 13 15 15 16 17 19 19 20 20 20 19 17 16 15 17 18 18 19 19 21 21 20 19 16 18 18 12 8 10 14 15 20 23 21 20 20 20 23 21 19 17 15 15 16 16 16 15 12 12 12 15 20 19 22 27 27 25 25 26 28 26 24 31 37 35 33 32 33 32 32 33 34 38 36 34 37 39 42 48 52 52 50 49 49 50 48 47
13 16 17 17 19 20 21 21 21 21 20 19 19 18 18 18 18 18 19 20 21 21 20 20 16 17 17 12 11 12 14 18 22 24 21 21 19 19 23 23 21 19 17 16 17 17 17 15 14 16 17 17 21 22 27 33 31 24 26 31 32 31 28 32 36 31 31 32 33 34 34 36 35 36 37 36 39 43 45 50 52 51 47 44 43 43 45 49
16 18 19 19 20 21 22 22 22 22 20 19 19 19 19 18 18 18 19 20 21 20 18 18 17 17 17 16 14 13 19 24 24 22 20 20 19 19 22 23 22 20 18 17 17 16 17 17 17 19 20 21 25 28 33 35 33 28 28 33 35 36 32 31 34 31 33 35 35 37 35 34 34 35 37 36 39 42 44 47 48 45 40 36 32 31 37 45
18 19 20 20 22 22 23 22 22 21 20 19 19 20 19 17 18 17 19 21 21 18 17 17 16 16 16 16 14 15 22 25 22 20 18 19 19 20 22 23 23 22 20 19 19 17 17 20 20 21 23 24 26 31 36 33 32 33 33 36 37 36 34 31 33 34 34 35 37 36 31 32 36 35 34 36 39 39 40 41 40 37 35 31 28 29 31 33
19 20 21 22 23 23 23 22 22 21 20 19 18 19 18 18 18 17 20 23 21 18 17 16 15 15 15 15 13 16 23 22 21 20 17 18 19 20 22 22 22 23 22 22 22 20 19 22 22 22 24 27 29 34 38 31 30 37 41 41 34 30 30 29 31 32 32 34 36 30 27 33 36 34 32 36 39 38 37 36 36 34 31 30 30 32 31 29
21 22 23 24 23 23 23 22 22 21 20 20 18 18 18 18 18 18 21 24 22 18 17 17 16 14 14 14 13 17 21 20 21 21 18 18 19 20 21 22 22 23 23 24 23 20 20 22 21 22 24 27 30 35 38 34 35 43 45 40 31 27 27 28 29 29 30 33 36 31 27 33 35 34 34 36 39 37 35 33 33 33 31 31 31 32 32 30
22 23 24 24 23 23 23 23 23 22 21 20 18 18 18 17 18 20 23 24 22 17 17 17 16 15 12 13 16 19 18 18 21 21 19 18 19 20 20 21 22 23 23 24 24 18 18 22 18 18 23 26 30 38 38 37 42 43 41 35 31 30 26 27 27 27 29 27 35 36 28 31 35 37 37 37 40 36 33 33 32 32 31 32 32 32 33 32
23 24 24 23 23 23 23 23 22 22 21 19 18 17 17 18 20 24 24 24 21 16 16 15 14 15 13 13 18 19 17 16 20 22 21 19 20 20 19 20 20 22 23 25 26 17 13 18 16 14 22 27 30 38 35 34 41 37 31 28 25 27 25 27 30 29 29 22 33 40 28 32 37 36 39 39 38 34 32 33 32 33 33 32 32 32 34 35
23 24 24 23 23 23 23 22 22 21 19 18 18 16 17 20 22 24 22 23 21 18 18 16 14 12 12 17 18 17 16 15 18 22 23 20 21 22 21 21 20 23 24 24 28 21 12 12 13 14 22 31 33 34 30 28 32 30 32 30 21 21 21 28 33 30 26 20 32 36 23 32 38 34 40 40 38 34 31 32 32 33 33 33 33 32 34 37
24 24 23 23 23 23 22 22 21 21 19 17 17 17 19 21 21 21 19 20 20 19 17 16 17 14 13 18 17 14 15 15 16 19 21 21 22 23 22 22 22 24 24 24 26 24 19 12 12 17 21 29 32 33 30 27 28 30 36 32 20 18 17 29 38 30 23 22 32 30 19 32 38 34 39 40 38 34 31 32 32 33 33 33 33 33 33 35
24 23 23 23 22 22 21 21 21 20 19 18 18 19 20 20 19 19 19 18 17 17 16 15 16 16 17 19 15 13 13 13 15 16 18 21 22 23 23 22 24 21 17 20 21 19 21 15 12 20 26 27 27 29 26 24 28 30 27 21 19 21 18 29 44 37 29 26 30 26 20 33 38 35 39 40 38 34 32 32 32 33 33 32 32 32 33 34
23 22 22 22 22 21 20 20 21 20 19 19 19 19 19 19 18 19 19 16 15 15 15 15 14 15 18 17 13 11 12 13 15 17 19 20 21 22 22 22 22 18 13 15 18 15 15 16 18 24 29 30 28 24 19 16 21 24 22 20 24 27 22 24 40 44 35 30 30 25 26 37 37 36 39 39 38 34 32 33 33 33 32 33 33 32 32 33
22 22 22 23 23 21 20 20 20 18 17 17 16 17 17 17 17 18 18 17 16 14 14 15 14 15 16 13 13 13 13 14 15 18 19 19 20 21 21 22 21 17 15 14 15 14 12 15 21 21 23 29 31 23 16 17 18 20 25 27 29 33 30 22 31 43 36 33 35 29 33 40 36 37 39 39 37 34 33 33 33 33 33 33 33 32 32 32
22 23 24 25 24 23 21 19 17 15 14 15 14 14 13 14 15 15 16 14 13 13 12 14 14 16 15 14 17 15 13 13 14 17 18 19 21 20 19 22 22 19 16 13 13 16 15 16 18 19 20 27 35 28 17 20 24 28 33 32 32 34 31 22 25 40 39 36 36 32 37 40 37 37 38 38 37 33 32 33 33 33 33 33 33 33 33 33
23 25 24 23 22 22 20 16 15 14 15 16 15 14 12 11 10 10 10 9 10 15 16 18 19 20 19 17 16 13 12 13 14 16 17 19 20 17 15 16 20 20 16 15 15 19 22 21 20 21 23 30 43 43 33 33 38 43 45 42 42 38 32 25 28 42 46 38 35 36 38 38 39 37 36 38 36 32 30 30 31 32 33 33 33 34 34 34
24 24 21 20 20 19 18 15 16 17 16 17 16 17 14 13 15 14 12 11 13 17 18 19 20 20 20 17 13 11 13 12 12 16 16 17 16 15 12 12 15 17 23 30 25 21 26 28 28 28 31 37 47 54 53 53 54 54 52 50 47 42 35 28 31 45 48 36 34 41 40 38 40 37 36 38 33 30 30 29 30 30 32 32 33 34 34 35
23 20 19 18 18 17 17 17 18 18 16 16 14 15 14 15 19 18 18 18 17 15 14 15 17 17 18 18 15 12 14 12 10 12 14 15 16 15 14 18 20 16 30 45 34 23 25 28 33 39 44 48 53 61 62 60 63 58 48 44 37 32 30 24 31 45 44 36 34 41 42 40 41 38 36 37 33 32 30 30 31 30 30 31 33 35 33 35
20 18 18 17 16 17 16 16 16 16 15 14 13 13 14 14 14 14 15 20 20 16 15 14 14 16 16 16 16 13 15 16 12 10 12 12 13 16 19 24 29 26 32 38 26 20 25 28 39 49 53 57 59 61 59 55 58 50 36 34 28 24 26 25 37 48 42 37 35 41 44 39 40 39 37 37 34 35 36 34 34 32 32 33 33 36 35 35
18 18 17 16 16 16 15 15 15 14 13 13 13 14 16 15 15 12 11 16 19 17 15 13 13 16 15 15 15 14 15 18 18 13 11 12 14 19 23 27 35 37 35 29 19 16 19 25 42 56 57 53 46 45 48 42 38 34 26 26 25 24 28 26 35 45 41 39 38 44 46 39 42 44 40 40 38 38 39 37 37 35 35 36 35 36 36 36
18 17 16 16 16 15 16 15 15 15 13 13 13 15 16 16 17 15 12 15 18 15 14 13 12 15 16 15 15 14 14 16 20 16 11 14 16 20 25 31 34 34 40 44 34 24 26 35 50 58 49 37 31 34 40 31 22 26 26 25 26 27 30 29 32 38 38 45 50 48 39 31 43 50 43 43 42 39 38 35 35 35 35 37 35 35 36 36
17 16 16 17 16 16 17 15 15 15 14 14 13 16 19 18 19 19 17 18 16 13 14 14 12 14 15 15 14 16 15 13 17 16 13 13 16 22 27 30 27 26 43 56 39 23 30 45 53 48 37 30 27 29 37 33 21 20 25 25 26 28 33 33 35 36 27 30 45 45 28 20 36 46 42 43 41 37 37 35 34 35 35 36 35 35 37 36
17 16 17 17 16 18 17 17 16 15 15 15 13 16 21 21 20 20 21 24 18 13 16 15 12 13 14 13 13 17 17 14 14 15 14 13 14 21 24 25 27 30 45 49 30 21 30 43 47 39 32 29 25 24 35 40 26 16 22 27 31 36 38 36 37 36 22 17 33 41 29 21 28 35 38 44 43 37 36 36 35 35 35 36 37 36 36 38
17 17 17 17 17 17 16 17 17 15 16 15 14 16 20 23 21 18 23 26 18 13 17 15 11 13 14 14 12 15 17 16 14 13 15 15 13 16 19 24 29 33 47 42 21 22 31 36 40 36 26 21 21 23 32 41 31 18 25 34 38 39 37 38 39 35 29 26 30 37 34 27 23 29 41 47 44 41 39 37 37 37 37 37 38 38 38 40
18 17 17 17 17 16 16 17 17 17 15 15 15 14 19 24 20 21 28 23 12 12 18 15 13 12 12 13 12 14 17 18 17 14 15 19 15 15 21 28 28 28 41 37 16 22 33 31 36 36 23 17 20 25 34 43 32 21 29 38 41 41 39 42 41 35 39 34 21 24 31 28 20 26 46 53 45 43 43 41 40 38 39 39 39 40 39 40
18 18 18 17 16 16 16 16 17 17 15 15 15 13 17 19 16 24 31 18 9 14 18 15 14 13 13 16 16 15 17 18 20 16 14 19 18 16 21 27 29 28 35 34 19 22 32 35 45 42 25 20 24 29 39 42 30 27 38 39 39 45 44 42 37 33 39 31 14 15 20 23 22 20 34 45 42 42 44 42 41 39 40 40 40 42 40 41
18 19 19 17 16 16 16 16 16 16 14 14 14 15 17 14 18 30 29 16 13 19 18 16 20 21 23 27 24 21 23 22 21 20 18 21 21 21 23 23 26 25 26 29 25 25 33 42 54 51 35 33 36 37 43 43 34 37 39 28 26 31 30 32 30 25 26 21 13 14 15 24 33 24 25 39 45 48 50 46 42 40 40 39 39 40 40 43
18 18 18 17 16 15 15 16 15 14 14 12 13 16 16 18 28 31 23 15 17 22 20 24 33 31 30 32 24 24 32 27 22 26 26 26 27 29 29 27 28 23 19 23 24 24 31 33 36 42 42 44 42 37 42 44 39 37 27 15 17 18 17 21 21 19 21 18 14 13 17 29 37 32 32 45 51 50 52 50 44 39 38 39 39 39 41 43
18 17 16 15 14 14 13 13 14 13 12 12 14 15 19 26 28 24 23 19 16 21 24 32 41 37 32 30 24 26 32 27 25 31 32 30 34 38 36 36 36 25 17 22 22 20 21 20 21 31 37 40 34 24 29 34 30 28 23 18 21 22 23 24 21 22 23 20 16 13 25 36 31 30 40 45 46 46 47 47 43 40 40 40 38 37 40 44
17 14 12 12 11 11 11 11 12 12 13 15 13 16 25 28 20 21 30 24 18 26 33 39 42 35 30 24 21 27 28 23 24 31 33 29 31 37 38 42 43 30 19 20 22 19 18 19 21 25 28 32 29 21 23 25 24 28 26 23 28 33 43 44 32 29 29 24 19 16 31 39 23 27 44 41 39 43 45 45 43 39 39 37 33 33 39 44
12 10 10 11 11 11 9 10 12 12 14 11 13 25 30 22 18 24 29 26 26 35 39 43 37 27 24 21 22 28 24 21 24 27 29 26 26 31 33 38 43 40 32 24 23 25 22 20 20 21 22 24 27 30 34 30 26 31 26 23 30 36 48 53 39 37 40 33 29 29 36 35 25 35 47 40 40 44 42 41 38 32 30 30 28 29 37 40
9 10 9 11 13 12 11 12 11 10 10 6 17 34 28 19 21 24 26 31 35 38 39 39 30 19 19 21 26 30 24 21 23 23 26 28 29 33 34 39 43 46 43 29 25 29 23 16 22 28 26 25 29 36 43 36 26 29 28 26 32 32 39 47 39 37 46 47 44 39 34 24 25 43 49 41 42 41 37 36 32 28 25 24 25 29 35 38
11 9 8 9 10 9 11 12 9 9 7 7 22 33 27 24 24 23 33 42 42 43 39 29 21 19 21 20 24 31 28 25 24 20 22 30 34 34 37 43 47 51 50 36 28 29 22 17 23 29 27 28 35 37 41 39 26 23 30 33 33 33 38 48 43 35 42 53 46 33 31 25 25 42 48 43 40 34 32 32 28 26 23 21 25 30 35 35
11 9 8 7 7 7 9 9 9 7 4 12 29 33 29 32 29 28 43 52 52 49 35 19 16 21 26 22 20 31 32 26 24 20 17 24 32 35 39 45 49 54 56 47 35 33 32 28 24 25 23 26 36 36 36 42 36 27 33 36 31 33 37 42 50 50 49 51 40 30 40 40 32 40 46 41 38 34 33 31 27 25 23 24 30 32 33 31
9 8 7 7 7 7 6 6 8 5 4 25 45 39 32 37 39 42 53 59 58 47 27 17 18 21 28 24 21 35 39 28 24 22 18 19 27 37 43 47 51 57 63 56 41 39 41 31 23 26 27 24 27 28 27 36 39 32 34 37 32 38 44 41 51 60 58 60 53 41 45 44 34 40 46 42 39 37 34 29 23 22 25 29 31 29 26 25
10 9 8 9 8 6 7 7 6 3 10 34 49 40 34 41 47 53 60 62 56 40 26 26 24 22 28 27 24 36 42 35 27 24 22 21 25 39 52 55 53 57 65 58 45 45 43 28 20 24 27 23 20 23 26 31 37 34 35 39 37 41 46 44 51 55 52 58 62 55 52 42 32 38 44 41 37 35 33 29 23 24 29 31 28 24 24 27
10 9 8 10 8 7 7 4 4 14 28 40 43 38 39 45 50 55 61 63 53 37 29 32 30 23 27 31 30 35 41 42 35 26 24 25 28 41 60 71 71 71 70 58 50 52 43 29 23 21 20 19 18 27 33 32 36 39 39 46 49 46 44 48 55 55 52 58 65 73 67 41 28 37 40 35 33 31 29 28 27 29 30 27 25 27 31 36
8 9 8 7 7 8 5 6 22 40 45 41 38 41 46 47 46 50 57 61 56 44 36 37 34 27 28 31 31 36 42 41 37 29 25 30 33 39 59 82 92 91 76 50 46 56 46 34 34 29 18 13 21 39 44 38 38 39 40 47 53 51 51 59 62 54 57 64 66 76 77 48 32 36 32 26 29 28 26 28 30 30 27 25 28 32 34 37
8 13 11 6 8 6 4 22 45 50 45 41 40 48 57 51 42 44 51 55 53 48 42 40 40 37 35 34 35 42 42 35 34 31 26 33 40 43 61 82 95 102 84 50 46 62 56 41 40 32 17 14 31 47 47 41 38 37 41 45 49 52 54 62 65 58 64 69 59 63 71 52 35 32 26 23 26 25 26 31 31 28 26 28 32 33 33 38
9 12 8 5 7 4 7 30 47 46 48 51 47 50 57 50 40 40 47 49 45 43 38 35 39 37 37 43 43 40 37 31 30 30 28 34 42 51 68 80 87 97 84 52 49 64 57 41 36 26 13 19 40 49 49 49 44 42 47 48 49 55 57 61 64 67 79 77 62 68 75 53 30 25 24 25 25 25 28 31 30 29 29 30 31 32 35 40
8 9 7 7 6 5 13 30 40 44 48 43 38 41 45 45 43 41 45 48 46 44 36 33 39 37 41 53 49 39 38 31 25 29 33 35 43 56 69 75 81 89 79 62 67 72 51 30 27 26 20 24 33 37 40 45 43 40 46 52 58 65 71 71 65 72 85 71 53 70 81 54 27 23 25 24 25 27 31 30 29 30 31 31 31 34 37 41
7 7 7 6 3 6 18 27 33 45 49 39 34 36 36 39 42 41 44 47 49 47 36 31 41 44 46 52 46 39 39 30 25 32 36 36 43 58 69 70 76 88 90 88 89 79 53 31 24 26 30 31 30 29 27 30 37 40 44 55 67 74 76 71 64 73 82 66 55 71 75 50 30 27 27 24 26 32 33 31 29 28 29 32 34 35 38 40
8 12 13 12 6 9 18 21 22 33 44 42 35 32 30 31 32 38 44 42 42 45 38 36 44 43 40 42 39 35 33 29 30 35 38 37 38 49 65 68 67 76 87 89 82 69 58 45 30 27 33 33 31 29 26 30 43 50 52 57 66 75 78 73 74 77 72 71 74 70 62 55 43 33 28 27 31 35 32 30 30 28 29 35 38 37 39 41
12 21 24 20 13 13 21 23 23 28 33 34 32 31 31 31 29 32 38 36 37 41 39 40 43 37 34 38 36 32 30 29 30 35 41 46 45 47 59 66 61 62 71 72 61 51 46 40 39 46 47 40 37 37 34 42 51 51 53 57 60 72 79 79 86 81 72 88 92 61 47 55 47 32 28 31 35 34 31 32 33 33 36 40 41 40 42 43
16 22 22 20 19 27 32 28 29 36 36 35 40 40 36 35 32 29 32 33 33 35 31 29 36 42 46 47 35 27 30 28 30 42 49 54 59 54 52 58 59 57 63 61 51 47 39 34 53 73 65 47 43 43 39 45 50 45 47 51 52 65 80 86 89 79 72 86 82 50 40 45 37 29 31 33 34 34 34 37 38 40 44 44 43 43 44 47
14 17 18 18 24 36 38 31 31 38 40 42 45 42 36 34 32 34 41 35 25 29 30 24 30 44 57 58 41 29 33 30 32 50 58 59 66 58 45 50 54 52 58 61 63 61 42 35 68 92 76 53 42 37 37 40 40 39 45 52 54 62 74 79 76 64 57 58 49 36 38 39 31 30 32 32 35 37 38 40 41 44 46 46 46 46 49 53
7 11 15 16 23 31 32 31 30 29 34 40 38 38 41 37 30 37 46 36 21 25 32 29 34 50 65 65 47 33 35 32 31 46 55 56 61 55 43 47 56 59 61 67 76 69 43 43 80 93 72 50 37 32 34 32 34 41 49 56 61 60 59 60 58 53 52 49 38 35 44 44 33 29 32 35 38 39 40 42 44 46 46 46 48 50 54 60
4 6 7 11 24 31 27 28 31 28 30 33 32 39 43 36 35 41 40 34 32 33 35 36 42 55 67 63 47 39 44 46 45 52 57 54 54 55 52 56 67 70 70 78 87 79 59 55 72 80 65 41 26 25 28 29 41 58 65 64 60 53 48 47 45 43 44 46 44 46 52 47 33 31 36 37 38 40 42 43 45 47 47 49 51 54 58 62
5 6 4 8 23 33 31 32 32 27 28 35 44 52 46 39 47 47 30 28 39 41 41 45 48 50 50 45 43 50 59 65 67 70 70 64 62 69 74 75 77 78 81 86 84 82 80 66 61 71 65 38 25 27 29 33 41 53 66 65 51 42 40 37 33 30 28 34 44 51 47 37 32 36 39 37 38 42 44 45 48 50 50 50 53 57 61 65
Wind_Speed
6 5 5 4 5 5 5 5 5 5 4 4 4 3 3 2 3 5 7 8 10 12 13 12 10 9 8 7 7 10 11 8 8 10 12 14 12 9 8 6 5 4 4 5 6 7 8 8 8 8 7 5 3 2 2 2 4 4 2 3 4 2 1 2 2 4 5 6 9 8 8 8 9 8 12 12 5 8 14 15 19 19 19 21 21 22 22 20
7 6 5 5 5 5 5 6 6 6 5 4 3 3 3 2 4 6 7 7 9 11 12 12 10 9 7 6 5 6 9 9 11 16 16 13 10 8 7 6 5 4 4 4 5 5 6 6 6 6 5 4 3 2 3 2 2 2 1 3 3 2 4 6 7 8 5 7 10 8 6 7 8 8 10 10 8 14 18 21 27 25 25 26 27 28 27 24
7 7 6 6 6 5 6 6 6 6 5 4 3 3 3 3 5 5 6 7 9 11 10 10 9 7 6 6 4 2 5 8 15 17 14 11 10 10 8 8 7 5 4 5 5 5 5 4 4 3 3 3 2 3 3 1 1 0 1 3 2 4 5 9 8 7 6 7 9 8 6 5 5 8 9 11 12 16 19 21 25 24 25 25 27 31 32 34
8 8 7 7 6 6 6 6 7 5 5 4 4 3 3 4 5 5 7 9 11 11 10 9 7 6 6 6 4 3 6 5 15 16 12 11 10 10 10 10 8 6 5 5 5 5 5 4 2 1 2 1 2 2 2 2 1 1 1 2 4 3 3 9 8 8 8 6 6 7 5 3 6 10 13 15 11 12 17 18 18 18 20 22 24 28 32 38
9 9 8 7 6 7 7 7 6 5 5 6 5 4 4 5 5 7 8 10 11 10 10 9 7 7 7 8 5 4 7 2 10 14 12 11 9 9 9 10 10 8 6 6 6 7 7 5 2 1 1 2 2 1 2 3 2 1 2 5 4 4 4 8 9 8 7 5 5 5 3 5 8 15 19 20 12 10 14 14 14 15 18 20 22 27 35 42
11 9 8 7 7 7 7 6 5 6 7 8 7 7 7 7 8 9 9 10 10 10 11 9 7 6 8 13 12 9 7 2 10 14 12 11 9 8 8 10 11 10 8 7 7 6 6 5 3 2 1 2 2 2 2 2 2 1 4 6 5 6 6 9 9 6 6 6 6 5 5 5 7 17 20 21 16 11 12 11 13 17 19 23 28 35 41 42
11 9 8 8 7 7 7 6 6 8 9 9 9 9 9 9 10 9 8 9 10 11 13 11 7 6 9 14 14 15 14 10 15 15 12 11 9 7 7 9 11 11 9 7 7 6 6 7 5 3 2 2 2 2 2 2 2 1 3 6 7 7 7 10 7 5 6 8 11 8 5 6 8 14 18 20 17 13 12 12 14 16 20 29 39 44 43 40
10 9 9 8 8 7 7 7 8 8 9 9 8 9 9 10 9 9 9 10 10 13 15 15 10 5 6 6 9 18 19 15 19 17 12 9 7 5 5 8 10 10 10 9 10 7 7 9 7 3 2 3 2 1 2 2 2 2 4 5 6 5 6 10 8 6 7 11 17 9 7 13 10 14 20 20 15 14 13 13 14 16 23 35 42 42 41 40
10 9 9 9 8 8 7 7 7 7 8 9 8 8 9 9 9 9 10 10 10 11 15 18 16 8 4 2 9 15 15 17 20 17 12 7 5 5 4 6 8 9 12 12 12 10 9 9 8 4 3 4 2 2 2 3 2 3 4 4 4 6 9 11 10 10 7 11 19 11 11 16 10 12 17 19 16 13 13 15 15 18 27 35 37 37 38 40
10 10 9 9 8 8 7 6 6 6 7 7 7 8 8 9 9 9 9 9 9 8 10 14 17 16 9 9 15 12 12 19 19 15 12 8 6 6 5 6 7 9 12 12 12 13 12 9 9 4 4 5 3 2 3 3 2 4 3 6 7 9 13 13 10 12 7 7 17 12 12 16 12 9 10 16 17 13 13 16 19 22 27 29 31 33 35 38
10 10 9 9 8 7 6 6 6 6 6 6 7 7 8 8 8 9 8 8 8 8 9 10 12 17 19 23 23 12 15 21 17 14 11 8 7 6 5 5 6 9 10 11 12 14 13 11 11 7 1 2 3 3 4 4 2 3 3 7 5 5 11 15 9 11 7 3 13 7 8 14 14 11 10 14 15 11 12 17 20 24 25 25 27 29 32 36
10 10 9 8 7 6 6 6 6 7 7 7 7 7 7 7 8 8 8 7 7 7 9 11 11 13 20 30 26 15 19 21 14 12 9 7 7 6 5 5 6 8 8 9 11 14 17 14 13 13 6 1 2 3 3 6 3 3 2 4 3 3 5 12 7 9 6 5 13 3 4 10 13 11 11 13 13 10 13 18 21 22 22 23 24 25 29 32
10 10 8 7 6 6 7 7 7 8 8 8 7 7 7 7 7 8 8 7 5 5 5 8 11 13 18 21 20 19 20 21 12 6 6 7 8 7 6 5 6 8 8 9 10 11 16 17 12 15 14 5 2 3 4 6 4 3 3 1 2 2 2 9 5 9 5 7 17 5 4 6 9 11 12 13 13 11 15 20 20 19 20 21 21 22 25 28
10 8 7 6 6 6 7 7 7 8 8 8 8 7 7 7 8 9 10 8 6 5 5 5 5 11 17 13 14 21 21 20 11 3 6 8 7 6 5 6 7 7 8 9 10 8 8 13 17 18 18 11 5 4 4 3 3 2 1 1 3 2 4 7 5 10 6 7 17 9 4 4 7 10 13 12 12 12 15 18 18 19 19 19 20 21 22 25
9 8 6 6 6 6 7 8 9 9 9 8 7 6 7 7 9 10 11 10 9 7 6 8 6 7 13 11 13 19 22 22 16 10 10 9 8 7 7 7 8 9 11 8 7 9 4 7 20 19 13 11 7 3 2 1 2 3 2 3 5 5 6 4 3 8 8 7 14 9 3 3 6 8 11 12 12 12 14 16 17 18 18 18 19 19 20 22
8 7 6 6 6 6 6 8 9 9 8 7 6 5 5 6 8 9 11 13 14 12 9 9 10 11 11 9 12 18 26 28 22 15 10 10 9 7 7 6 7 9 12 10 6 8 7 5 14 16 10 9 4 1 0 2 3 5 5 4 5 5 8 5 3 5 8 7 9 8 1 2 4 6 9 11 12 11 13 15 16 16 17 18 18 19 19 20
7 7 8 8 8 7 7 7 8 12 15 16 17 15 11 8 6 6 7 9 11 12 14 11 7 10 14 14 14 18 27 28 21 13 9 11 10 8 6 3 5 8 9 10 7 6 9 7 5 8 11 10 6 4 3 6 6 5 5 3 2 4 7 7 2 5 10 8 6 6 2 2 2 4 6 10 11 11 12 13 13 14 15 17 18 19 20 22
8 9 10 9 8 7 6 9 15 20 22 23 24 26 26 21 15 12 9 7 7 7 12 16 9 5 10 20 17 13 20 26 21 12 8 10 12 12 10 4 4 4 6 9 9 7 7 6 2 4 9 10 8 8 6 5 5 5 6 4 2 5 6 9 8 6 9 8 4 3 2 3 2 2 4 7 9 10 11 11 11 12 13 15 17 18 20 22
10 11 10 10 9 8 9 16 20 16 14 13 15 18 22 26 27 28 27 25 22 12 7 15 15 5 4 18 18 8 12 24 25 16 7 7 12 12 12 10 6 5 5 5 10 11 5 3 6 8 9 8 7 6 5 2 4 4 5 4 4 6 6 10 10 5 7 8 4 1 1 3 3 2 2 4 6 8 10 10 11 12 12 14 16 18 20 21
11 11 11 12 13 13 14 16 11 7 7 6 6 7 9 12 15 21 30 35 32 22 16 16 16 9 5 16 20 9 7 20 29 23 11 7 8 9 12 12 12 12 7 2 6 9 6 6 8 6 5 6 4 3 2 1 2 3 3 4 6 6 6 11 8 3 5 6 3 2 3 5 4 2 2 2 4 8 10 11 13 13 13 15 17 19 19 19
11 12 13 15 14 13 13 10 6 6 8 8 8 11 9 8 7 10 19 25 23 22 24 24 21 15 9 16 23 17 9 18 30 30 19 11 8 7 12 11 8 10 7 3 1 4 7 9 5 3 3 4 3 1 2 1 2 2 3 3 5 5 7 13 7 3 4 6 3 4 5 6 5 3 3 2 3 7 10 12 13 14 14 15 16 18 18 18
12 14 15 15 14 12 10 8 8 8 7 7 9 15 15 14 13 13 14 15 14 16 19 24 27 23 15 14 21 23 18 18 27 32 26 20 16 11 12 13 8 6 5 2 1 3 7 8 3 3 1 1 0 1 3 3 3 2 2 3 5 6 8 11 3 6 2 5 4 4 4 6 7 6 3 3 4 6 7 9 11 12 14 14 16 17 19 22
13 14 14 14 13 12 10 9 8 5 4 5 7 11 11 12 12 10 12 11 11 14 16 19 26 29 23 15 18 25 26 20 21 29 30 24 21 16 12 11 6 4 6 6 6 6 6 6 3 2 1 2 1 1 3 3 2 1 2 4 5 7 8 6 0 1 4 6 5 3 5 6 8 7 5 5 4 5 4 5 7 10 12 13 15 17 21 24
12 13 12 11 10 10 8 8 6 5 5 7 9 9 6 7 8 7 7 7 6 11 16 16 21 28 25 18 17 20 25 25 22 27 30 25 19 13 9 6 4 4 5 6 6 8 6 3 1 1 2 2 2 3 5 4 2 1 1 5 7 8 8 8 7 9 8 3 4 5 7 6 8 10 7 7 5 3 4 5 7 9 12 13 15 18 20 21
11 11 9 8 7 6 5 6 6 7 7 8 10 10 5 3 4 5 3 3 3 9 15 14 16 23 25 20 14 12 18 24 27 27 24 24 19 8 5 6 4 4 2 3 2 6 5 1 1 1 2 2 2 3 5 5 5 1 1 4 9 11 11 12 11 10 7 1 2 2 7 5 7 12 9 7 6 4 3 5 8 11 13 15 17 18 19 20
10 9 6 4 3 5 4 4 7 7 7 10 11 10 5 1 2 5 3 2 3 8 13 12 11 16 22 23 14 4 9 14 21 27 23 20 18 8 3 5 4 3 1 1 1 2 2 1 1 1 2 2 3 4 2 3 5 4 2 3 8 10 12 13 9 6 6 5 1 2 5 7 3 8 10 9 7 4 3 5 8 11 13 15 17 18 20 21
8 6 4 1 2 5 4 4 8 7 6 10 11 8 5 2 3 5 2 2 4 6 10 11 11 12 16 22 19 6 3 8 12 24 27 18 15 11 5 2 2 4 1 2 1 2 1 1 2 2 4 5 6 6 3 3 5 6 3 4 10 10 11 10 6 4 4 6 3 4 4 8 7 2 8 9 7 4 2 6 8 12 15 15 17 19 19 19
6 5 4 2 3 6 5 5 7 8 8 9 9 7 4 3 2 3 1 3 4 6 6 8 9 12 12 16 24 15 4 9 7 14 26 22 15 9 7 4 1 2 3 2 2 3 1 4 5 4 7 8 7 7 4 3 4 5 6 8 10 9 8 5 4 5 3 3 4 2 2 6 9 3 5 7 6 3 3 6 9 13 15 16 17 17 17 18
5 5 4 3 5 7 6 6 8 8 8 9 8 5 4 3 1 1 2 2 3 4 5 7 7 14 16 11 18 18 9 10 7 10 20 25 19 8 4 6 3 2 4 3 2 2 1 2 3 3 5 7 8 7 2 2 4 8 10 11 8 4 3 3 3 5 2 3 5 2 1 5 10 7 1 4 4 1 2 5 8 13 15 18 18 17 19 20
4 5 4 5 7 9 9 9 9 9 9 8 6 4 4 4 1 1 4 2 2 5 6 8 6 12 18 9 9 15 10 8 11 12 16 23 28 21 6 3 4 2 1 3 4 3 1 2 1 1 3 4 8 6 0 3 7 10 10 10 5 3 3 2 2 3 3 4 5 2 1 5 9 8 2 1 3 4 2 5 9 14 18 21 21 19 19 19
3 5 7 9 11 11 10 10 9 9 8 6 4 3 2 3 2 3 4 1 2 5 6 5 4 8 12 5 3 10 6 6 12 13 12 14 23 29 14 3 4 2 1 4 6 4 1 2 1 1 2 2 6 4 2 4 7 7 6 10 8 2 2 1 1 1 4 7 8 6 3 5 9 5 3 5 6 6 2 6 11 16 21 23 23 22 21 21
4 7 9 11 12 13 11 9 8 7 6 4 3 3 1 2 4 3 1 4 3 4 3 2 3 5 5 1 2 7 4 4 9 8 7 5 7 14 11 6 5 3 4 5 5 5 0 2 2 1 2 3 5 4 1 2 3 5 6 9 9 7 5 5 5 5 5 8 12 13 10 7 9 3 4 6 7 5 2 7 13 19 22 24 28 30 25 23
7 8 10 11 10 9 7 6 5 3 3 2 0 1 2 4 4 1 2 3 2 3 2 2 3 4 4 3 3 5 2 2 6 5 2 2 3 4 6 8 6 3 3 4 4 6 2 2 3 1 0 5 6 5 4 2 6 6 7 9 8 7 6 6 7 7 8 10 15 17 12 8 8 3 3 5 5 4 2 8 14 20 22 25 31 31 24 22
7 8 8 8 7 3 0 1 2 1 1 1 3 4 7 6 1 1 2 2 1 2 2 2 4 4 1 2 3 4 1 1 4 5 4 3 5 5 4 8 11 4 2 3 2 5 3 0 4 4 4 7 6 5 4 4 4 3 4 6 5 4 4 5 6 7 10 12 16 16 8 5 8 3 5 5 4 2 6 11 19 26 29 32 35 32 27 29
8 8 6 8 9 8 7 4 5 5 4 8 8 6 6 3 1 1 1 2 1 3 2 0 3 3 1 1 1 1 1 2 2 3 6 5 5 6 4 6 11 7 2 2 1 3 4 2 2 2 2 6 6 3 3 4 2 1 1 4 6 6 3 5 8 10 11 11 11 9 5 6 6 4 7 4 1 4 10 19 27 32 37 40 41 37 35 35
12 10 9 10 12 12 8 6 7 6 7 13 11 5 3 1 2 1 1 2 1 2 3 1 1 3 2 2 1 2 1 1 2 2 3 4 4 6 4 2 6 6 3 2 1 2 4 2 2 3 2 5 6 3 3 4 3 1 2 5 7 5 4 4 9 11 10 9 8 7 8 10 6 3 5 3 2 8 15 24 31 35 41 43 41 38 37 38
12 15 16 13 13 13 10 11 10 9 16 18 10 3 1 1 2 2 1 1 0 1 2 1 2 3 3 2 3 5 4 2 3 4 2 1 2 5 6 2 2 4 4 2 1 1 3 5 3 2 2 5 4 2 7 8 4 3 3 6 6 3 3 1 5 8 8 8 8 8 13 14 9 4 1 3 8 13 16 23 30 36 41 40 37 38 41 46
11 17 22 20 16 12 13 17 12 14 25 19 6 4 1 2 2 3 1 1 0 1 1 1 2 1 1 1 2 5 6 4 5 4 2 2 2 3 5 3 1 5 6 3 2 1 2 5 1 2 3 4 1 1 3 8 8 5 4 2 4 1 1 2 4 7 9 10 9 9 14 13 8 6 5 8 12 15 18 23 28 34 37 36 37 43 49 50
6 12 18 21 20 16 12 12 11 18 24 11 1 4 1 2 2 2 1 1 1 0 1 1 1 1 0 1 2 2 3 3 4 3 2 3 3 3 4 3 2 6 8 2 2 1 2 3 1 2 2 4 1 2 3 3 5 5 5 2 2 1 3 3 4 5 8 11 10 12 13 8 6 6 7 10 13 18 24 25 26 31 34 37 43 49 51 48
5 7 10 13 19 19 13 15 20 22 15 3 1 3 1 1 2 1 1 1 1 0 1 1 1 1 0 1 1 1 2 2 2 2 2 3 3 2 4 3 3 8 9 1 1 2 2 2 4 4 3 3 1 2 3 3 2 1 2 4 3 2 2 3 3 3 4 9 10 12 13 9 6 4 4 10 16 22 28 26 25 30 37 45 50 48 47 46
8 7 8 11 12 10 13 21 21 14 5 2 3 2 1 2 3 1 1 1 1 1 0 1 0 1 1 1 1 0 1 1 1 1 2 2 3 2 3 5 3 6 7 2 1 2 1 1 5 7 7 5 2 2 1 2 2 3 5 4 2 2 3 5 5 2 1 6 9 12 15 13 5 3 4 14 19 26 33 30 27 35 45 49 49 46 47 49
10 5 6 12 10 8 16 19 10 5 3 3 4 3 2 3 2 2 1 0 0 0 1 1 0 0 0 0 1 1 1 1 1 1 1 1 3 2 4 7 5 3 4 2 0 2 2 2 4 6 7 5 3 5 2 2 3 3 3 2 1 1 2 5 8 7 6 8 9 12 17 13 1 2 11 22 27 35 37 31 31 41 47 46 46 49 51 50
15 9 6 10 9 10 17 11 4 4 5 2 4 5 4 3 2 2 1 1 0 2 1 1 0 0 0 0 0 1 0 1 0 1 1 1 1 2 5 8 5 2 2 1 1 2 2 1 4 6 6 1 5 5 2 2 2 2 3 2 1 1 1 3 6 7 7 11 11 11 14 11 2 9 23 33 39 39 34 34 40 46 46 46 49 53 52 50
21 19 15 9 5 8 12 5 1 3 2 2 5 4 3 4 3 2 0 1 0 1 0 0 0 1 1 0 0 0 0 1 0 1 1 1 1 2 4 6 5 2 2 2 2 5 2 1 4 7 7 4 2 1 1 1 3 3 1 2 2 1 1 4 5 4 6 11 13 12 14 13 11 19 29 34 36 32 31 40 46 44 45 49 52 52 51 50
15 16 19 17 12 12 11 7 7 5 2 3 4 2 2 3 3 3 2 1 2 1 1 1 0 1 1 1 0 1 1 1 0 0 1 0 0 1 3 6 6 3 2 2 4 5 2 1 4 5 5 7 7 6 6 6 6 5 3 1 2 3 2 4 6 7 9 13 15 13 14 20 24 27 28 28 27 25 32 44 47 45 48 51 52 52 51 50
7 6 9 15 19 21 18 13 11 8 4 3 3 1 1 1 1 3 2 2 3 2 2 2 1 1 1 1 0 0 2 3 2 1 0 0 0 1 3 5 7 5 3 5 6 3 0 1 3 3 4 7 9 12 13 12 10 9 9 9 4 2 3 3 5 8 12 15 15 12 16 26 31 30 27 26 25 24 31 42 46 48 50 50 50 52 52 51
6 2 2 5 11 16 16 12 10 7 4 2 2 1 0 1 1 1 1 2 1 1 2 3 2 1 1 2 1 1 2 2 2 2 1 1 1 1 2 3 6 5 3 6 8 4 1 1 2 2 7 11 13 17 16 12 11 12 13 15 10 1 3 4 6 10 14 13 13 17 24 29 30 30 29 26 24 25 32 42 47 49 50 50 50 51 52 53
6 4 4 4 3 4 6 7 10 10 6 3 2 1 1 1 1 0 0 1 1 0 0 1 4 4 1 1 2 2 3 2 1 1 1 1 1 2 0 2 5 6 3 4 9 5 1 2 1 1 8 13 14 15 13 10 11 12 12 14 12 3 3 5 8 12 13 11 15 25 31 29 28 29 28 26 29 34 38 45 49 49 49 50 52 53 53 51
12 9 7 8 7 5 4 4 7 9 7 4 2 1 1 2 1 0 2 2 0 1 1 1 3 4 1 1 1 1 2 1 1 1 2 1 0 1 1 2 2 7 5 3 6 5 1 1 2 1 8 13 12 9 8 9 12 12 8 7 7 5 5 7 10 14 16 16 21 27 31 28 24 23 26 33 41 44 44 47 49 49 50 51 53 54 51 47
11 9 11 15 13 9 6 3 2 4 4 4 3 1 0 1 1 1 2 1 0 2 2 2 2 3 2 0 0 1 1 3 3 3 2 2 0 0 1 1 1 4 5 2 2 5 5 3 2 1 5 9 8 8 10 12 11 9 4 2 6 10 9 8 10 13 15 18 23 28 27 22 19 25 35 43 47 45 45 47 48 50 54 55 54 52 46 44
14 14 15 16 10 6 6 4 2 2 2 3 2 2 2 2 1 1 1 1 0 1 2 1 1 2 2 0 1 0 3 4 4 3 2 2 1 1 1 1 1 1 3 2 1 4 5 3 1 2 4 6 7 14 20 15 4 2 1 4 8 11 12 10 9 11 15 21 26 28 22 15 19 31 40 45 47 46 44 46 48 51 56 57 53 48 46 48
14 14 12 11 6 5 5 3 2 2 2 1 1 2 2 2 3 3 1 1 1 1 2 1 2 1 1 1 1 2 6 5 3 1 3 5 5 6 6 5 5 3 1 1 0 1 2 3 3 3 4 7 12 17 20 13 2 2 1 4 9 13 15 16 14 15 19 20 19 20 18 19 26 34 36 38 41 41 41 45 48 49 52 53 48 45 47 52
Wind_Direction
130 119 105 104 100 94 86 77 71 64 62 66 70 80 74 49 18 11 19 30 38 42 48 56 62 69 72 71 64 67 66 58 69 76 66 52 43 36 29 21 6 342 320 303 290 282 282 286 279 274 274 261 254 206 173 149 148 178 232 259 263 278 321 1 8 18 348 347 358 352 356 344 335 336 335 337 320 327 343 359 2 2 7 3 1 357 349 339
126 116 112 111 103 94 82 73 68 63 57 58 61 73 75 56 26 24 34 45 44 43 47 49 51 56 55 56 54 74 78 62 62 62 53 44 36 30 25 16 4 343 331 318 310 302 294 291 274 266 252 225 221 187 171 142 154 204 258 251 284 10 36 25 19 25 9 339 333 333 352 339 335 333 335 346 348 4 4 359 2 9 16 18 24 26 27 23
119 116 118 114 105 91 81 72 64 59 48 41 29 38 60 48 31 40 56 54 46 41 39 36 36 41 40 38 28 93 106 57 46 43 33 30 30 25 20 16 7 352 349 346 340 329 323 305 285 283 235 193 165 160 152 111 129 74 275 265 2 33 48 42 32 34 13 329 321 322 323 312 342 346 348 350 348 18 21 2 3 12 15 16 22 29 35 38
117 120 121 115 104 91 82 73 65 55 40 26 14 21 43 46 50 73 72 54 41 32 26 23 23 31 29 16 350 188 161 64 35 26 12 14 18 19 18 15 6 358 349 344 349 344 344 335 336 343 214 134 97 119 101 31 19 151 273 336 46 0 18 51 34 18 358 320 309 308 305 323 10 16 18 14 3 22 21 11 16 18 17 19 24 30 36 42
122 125 121 113 101 92 84 75 67 50 37 29 25 34 48 64 83 87 72 50 37 29 24 16 20 40 36 23 23 155 168 136 21 12 2 3 5 10 13 12 6 2 354 349 353 347 353 354 2 38 105 81 78 84 67 39 17 173 80 51 53 358 15 36 12 8 1 332 311 310 352 352 25 45 35 31 34 25 16 20 31 33 32 30 32 36 41 44
127 125 118 109 98 92 85 77 66 50 44 43 45 57 75 91 94 84 69 50 41 37 30 18 28 64 59 51 65 105 127 73 4 358 355 351 351 0 8 9 7 11 7 358 357 353 7 14 31 43 60 79 48 49 68 50 12 259 82 65 54 35 27 15 7 26 22 1 346 339 9 0 60 60 41 42 47 33 29 33 41 46 44 43 45 45 45 44
126 120 113 106 98 92 86 76 60 51 51 54 58 72 87 93 88 81 67 52 49 49 41 32 47 94 85 66 70 76 76 44 359 347 347 344 341 359 9 13 18 23 18 15 17 21 39 35 51 61 73 90 52 62 58 35 25 333 72 59 45 46 23 17 20 30 30 18 5 352 3 20 68 68 47 46 43 34 37 38 48 50 47 49 50 49 46 43
123 118 112 106 101 92 82 68 58 55 57 59 63 78 91 90 86 79 64 56 60 61 52 45 51 104 110 72 55 54 47 18 353 349 351 343 347 14 17 24 32 33 29 34 35 40 54 43 49 62 77 88 75 84 30 19 86 60 60 47 35 42 21 28 31 13 26 19 7 13 55 42 66 81 55 40 32 32 35 39 49 48 47 49 49 47 45 43
121 117 112 107 100 88 77 68 61 57 58 61 67 83 93 90 83 70 60 58 65 69 59 51 47 60 120 86 55 52 28 3 355 359 10 5 17 43 36 36 39 37 34 35 38 43 49 43 40 49 105 96 80 74 8 342 71 67 47 46 54 52 30 33 32 9 11 18 12 32 70 50 65 89 55 30 21 26 32 42 44 43 47 48 46 45 42 42
119 115 112 105 95 86 77 65 58 54 56 64 71 83 92 87 75 62 58 59 66 72 60 52 49 55 83 85 69 60 16 7 2 5 23 25 36 49 38 35 34 33 33 32 41 45 44 43 32 43 113 82 49 57 24 340 57 67 73 83 83 77 50 37 32 12 360 16 16 35 76 54 55 79 46 12 10 18 30 41 42 44 48 46 45 43 42 41
118 114 109 101 92 82 68 59 56 53 55 65 76 87 91 82 65 57 57 60 69 74 62 56 56 58 66 67 66 54 15 11 4 5 21 31 36 41 35 32 28 30 31 33 45 43 42 46 35 37 107 42 47 95 57 17 40 55 109 117 89 94 57 36 25 6 356 3 10 32 94 51 46 56 29 359 3 16 31 41 42 44 46 44 44 42 41 39
115 112 105 97 87 71 63 59 54 53 55 68 84 92 90 76 64 61 64 67 75 80 69 61 61 58 57 57 55 38 17 14 7 3 9 27 36 40 36 24 23 28 29 38 50 47 48 47 34 31 25 354 80 115 76 24 42 65 76 126 90 156 61 34 20 347 341 342 355 319 168 39 40 38 17 1 6 18 33 42 41 40 42 41 42 41 40 38
114 110 103 93 79 69 69 62 55 57 61 73 86 89 85 72 68 72 71 71 74 80 74 63 61 55 57 58 46 32 20 15 13 3 3 16 26 35 38 29 30 33 34 44 50 52 52 43 35 38 39 66 109 94 99 32 42 96 41 69 84 166 66 40 14 331 321 333 351 329 213 42 49 32 17 7 11 22 37 41 38 37 39 37 39 40 39 37
114 109 101 87 78 77 72 61 58 62 68 78 84 86 81 75 84 88 79 73 71 71 65 65 61 44 54 65 40 28 22 19 25 40 24 22 19 27 42 39 36 36 33 43 47 48 53 39 44 51 41 55 113 121 117 40 28 112 270 340 43 22 22 53 33 354 360 339 348 334 255 58 60 25 17 12 15 29 40 41 36 36 36 35 37 37 38 37
115 108 95 83 83 79 69 68 70 72 73 77 84 88 85 90 97 91 78 70 66 69 72 72 72 49 54 55 29 24 23 26 31 31 30 30 29 41 51 41 45 50 39 47 58 45 49 36 43 50 38 50 102 143 148 131 54 46 355 2 16 0 353 29 95 24 16 336 346 343 278 91 76 33 19 14 19 34 43 41 36 35 34 34 35 35 36 34
114 101 88 84 80 70 75 82 76 69 70 75 85 91 97 110 106 92 83 78 73 68 68 77 73 60 52 32 22 26 25 25 24 24 32 31 25 32 41 44 65 62 41 48 77 52 52 57 44 47 44 46 55 273 133 73 39 37 27 359 346 345 341 346 127 55 11 335 357 15 11 145 93 50 24 19 26 35 43 41 36 34 32 32 33 32 32 28
105 95 92 87 79 82 92 92 84 85 89 88 83 79 81 92 107 105 93 83 76 62 56 65 75 65 49 28 22 23 23 24 22 27 47 41 33 37 41 90 100 65 46 48 69 72 58 58 49 47 47 43 13 342 40 32 5 9 17 350 314 314 320 334 14 44 10 347 360 29 76 158 106 53 28 24 29 34 42 40 35 35 32 32 30 28 27 23
101 100 95 87 83 86 91 104 107 101 94 86 81 80 77 76 78 82 88 83 71 56 47 45 45 80 40 16 11 10 21 27 26 31 58 55 58 63 57 97 148 76 60 56 52 52 55 57 52 45 38 30 18 22 45 27 335 326 341 331 314 315 312 324 331 18 14 343 334 18 101 147 133 68 38 25 28 37 42 38 36 36 33 32 29 26 23 20
106 102 93 87 85 83 103 118 114 98 81 77 79 82 79 77 73 68 68 68 65 61 43 33 37 80 23 5 10 14 26 31 31 39 73 80 71 72 65 73 102 100 75 52 36 27 23 45 33 35 29 13 15 28 38 6 296 298 313 300 296 306 302 300 306 15 16 322 297 345 198 166 145 90 52 32 36 43 43 43 39 34 32 30 27 25 21 19
108 101 95 94 92 95 112 119 105 55 45 57 69 88 90 80 68 59 60 65 67 66 60 50 49 68 40 13 22 33 39 33 34 41 59 85 77 68 62 67 76 72 59 1 21 20 23 57 45 33 12 351 0 2 348 308 276 272 267 275 276 276 290 294 294 69 33 321 271 163 172 174 155 124 84 56 47 47 41 40 36 31 31 26 24 23 19 16
110 106 103 101 100 103 109 106 77 57 64 66 78 91 88 77 79 76 69 69 70 65 56 51 49 52 42 25 28 35 47 37 36 40 47 57 68 60 45 49 61 53 32 302 350 20 38 59 45 356 331 329 350 316 270 229 226 250 256 279 287 290 299 296 293 120 65 347 286 179 183 193 172 157 120 89 63 50 38 37 35 29 28 25 23 20 14 13
117 115 111 106 106 103 100 93 82 78 72 68 85 88 86 89 95 93 87 84 73 59 49 42 41 40 38 33 29 34 40 33 29 32 36 43 52 57 46 46 58 43 6 325 46 48 54 57 12 340 338 277 331 227 245 230 203 228 270 286 306 333 314 292 256 142 109 334 287 192 221 221 176 166 148 109 82 62 46 41 37 27 26 21 17 13 9 9
125 122 116 108 104 97 93 92 84 80 72 65 74 81 91 101 102 94 92 99 78 53 40 34 33 30 31 29 24 35 44 37 17 16 22 31 40 45 45 45 54 47 14 17 48 66 62 46 9 11 234 235 227 309 295 260 195 208 317 342 324 338 332 300 133 104 298 295 269 258 269 234 178 178 176 144 111 75 56 43 39 29 25 18 13 12 8 7
133 127 119 106 99 91 85 84 78 76 66 54 55 58 87 113 117 121 100 103 94 42 29 29 26 23 24 18 19 38 48 42 21 11 18 25 28 34 41 36 34 55 29 12 53 79 81 54 11 179 225 272 280 346 355 335 354 183 275 351 323 320 316 285 294 313 303 258 237 274 280 244 186 191 189 166 157 106 61 43 39 28 22 17 14 12 9 7
138 132 123 106 95 78 72 69 53 56 51 41 40 40 63 121 144 158 132 109 96 16 13 22 19 17 16 11 19 50 55 42 24 14 19 25 25 28 41 26 15 41 21 315 49 78 77 76 301 233 232 292 299 11 17 332 334 350 183 332 310 309 303 287 301 315 308 300 163 263 299 293 181 188 189 166 168 151 87 46 31 23 18 13 9 7 4 2
147 143 134 112 77 44 53 51 34 40 38 31 30 29 44 90 161 154 154 103 66 357 359 9 10 14 13 7 7 53 65 37 18 19 25 27 27 33 43 24 33 52 338 294 71 80 61 174 204 300 265 306 357 28 32 298 325 354 14 317 297 298 292 294 315 318 313 332 278 195 287 296 233 191 185 168 165 157 97 43 27 18 11 6 3 359 358 356
160 164 172 157 19 20 41 45 29 30 26 22 18 17 34 61 137 156 181 58 43 350 354 1 3 14 14 13 20 62 73 356 3 23 26 26 27 41 55 7 43 57 352 239 77 68 329 334 55 354 339 8 10 8 2 301 322 344 11 317 295 292 288 298 318 282 294 323 274 185 234 280 294 242 165 166 175 172 61 25 19 9 3 0 357 353 353 354
182 195 215 268 346 3 21 30 17 13 15 8 5 13 21 39 128 171 159 75 10 341 356 355 0 15 16 26 39 60 58 1 6 16 22 28 26 36 57 30 56 60 3 274 78 66 310 0 25 351 1 15 1 352 344 297 303 329 336 307 291 288 287 291 292 274 277 321 298 171 175 284 299 324 131 160 195 204 17 14 4 357 354 350 348 348 348 345
203 222 249 290 333 347 351 357 353 350 353 348 352 7 3 16 138 171 86 93 341 340 354 355 358 4 5 25 40 40 36 28 22 356 19 34 32 38 85 43 68 152 8 8 67 67 304 20 28 334 12 6 335 339 337 241 302 316 308 289 268 230 248 256 270 284 247 257 308 7 66 309 301 301 184 175 204 216 17 8 356 352 349 346 344 340 337 335
231 255 280 299 315 324 319 323 329 330 334 331 338 359 14 36 111 112 52 49 336 344 338 1 4 347 357 14 29 20 20 22 7 358 20 33 34 40 67 56 54 163 154 52 66 50 254 173 139 342 41 350 314 329 162 215 287 298 300 301 289 193 213 215 210 279 288 287 323 359 322 315 299 293 318 123 123 105 56 355 352 351 348 346 343 334 328 326
284 289 298 301 301 306 305 307 311 315 321 312 313 343 16 50 61 91 62 355 318 349 342 10 9 348 7 30 1 0 360 4 2 7 19 21 27 31 31 8 4 7 64 33 28 18 231 162 105 110 65 337 288 288 174 205 270 292 327 342 344 332 282 282 228 295 327 316 321 331 331 297 282 292 63 116 129 121 70 359 351 346 342 339 338 332 325 324
305 300 302 301 298 297 294 293 296 298 307 297 289 317 283 63 40 65 23 311 316 7 4 359 347 351 2 337 338 349 334 359 8 18 23 11 27 32 36 31 340 332 33 21 351 347 5 140 24 182 139 357 307 297 175 175 319 346 4 3 1 355 348 340 332 334 317 301 307 325 339 300 279 322 90 145 156 151 62 359 345 337 333 333 335 331 324 325
310 312 314 317 311 298 284 278 288 283 284 297 162 38 74 76 49 54 290 324 5 13 336 285 306 321 311 314 8 353 315 349 2 16 22 354 49 65 77 53 3 297 3 3 333 350 26 138 24 44 121 351 347 353 7 353 360 15 14 13 17 2 344 321 324 327 305 297 304 316 328 305 294 334 111 145 150 176 281 333 334 334 332 331 333 329 324 328
337 340 338 351 358 359 36 226 237 241 243 113 98 66 62 70 71 233 289 326 353 322 305 281 305 311 308 15 7 330 307 76 5 11 10 8 38 34 47 35 17 353 309 340 8 356 343 269 28 28 343 344 7 31 2 320 347 35 31 26 28 359 330 299 310 314 301 300 302 305 308 301 312 354 116 120 127 236 296 324 335 340 339 335 335 334 332 331
24 8 14 38 54 77 86 105 104 84 100 98 80 56 66 84 228 213 286 293 303 297 292 258 305 315 43 33 12 311 300 47 36 35 29 34 45 18 357 3 6 1 317 341 35 333 315 283 29 39 338 352 12 25 313 299 338 72 39 28 11 342 293 267 285 290 291 293 294 292 274 288 315 81 105 111 156 312 331 339 341 342 342 340 337 335 332 327
37 38 58 68 68 69 73 92 87 80 108 97 75 53 72 98 233 166 209 267 287 304 301 324 334 353 5 314 14 44 278 302 4 20 54 58 59 27 4 332 1 1 348 359 25 336 320 309 14 27 64 50 47 44 20 356 322 314 5 358 341 309 252 268 288 289 290 284 282 290 290 296 313 85 109 119 345 349 347 342 341 342 342 340 334 329 325 322
45 49 56 61 59 54 63 82 85 98 98 86 74 79 115 207 209 194 215 266 174 304 308 12 25 354 344 309 346 354 328 311 348 352 39 63 50 21 354 339 37 4 346 314 223 56 305 299 342 13 0 44 71 83 67 50 344 319 14 343 320 261 188 211 295 296 298 282 279 294 295 300 312 321 54 47 357 353 348 343 343 344 341 334 328 325 321 319
57 54 51 49 51 58 79 84 89 102 91 78 75 110 131 224 196 213 205 94 147 303 340 37 33 332 292 316 350 337 329 345 351 351 34 22 27 28 350 338 66 20 1 302 287 65 266 285 305 125 331 356 80 278 62 63 44 65 98 347 329 294 243 310 311 301 301 294 291 295 294 296 308 319 343 0 353 346 341 340 341 339 335 329 325 323 319 318
56 54 47 44 54 63 80 97 108 100 88 75 94 115 149 225 168 205 185 94 232 261 34 40 6 348 193 319 344 332 337 3 351 346 39 2 0 64 30 344 305 355 1 323 311 9 225 285 329 150 300 317 36 349 316 34 59 105 128 84 33 327 280 305 317 299 299 300 302 309 303 294 310 334 348 350 348 344 340 339 337 333 329 325 322 320 320 321
73 60 40 45 66 70 83 105 94 82 78 71 137 109 169 179 146 185 75 72 198 337 17 178 230 319 18 289 326 358 359 10 337 354 40 0 344 90 63 25 312 330 341 322 128 333 231 257 303 298 313 303 333 36 347 339 3 29 14 16 20 344 270 269 263 236 287 300 305 313 303 291 317 6 9 348 347 343 338 337 335 331 326 322 320 320 321 323
86 77 39 51 82 98 97 87 71 57 64 106 85 88 124 116 130 125 76 104 114 56 174 165 165 342 350 355 96 249 314 9 14 12 44 15 10 51 37 17 340 320 325 292 140 350 310 247 296 312 328 328 359 67 335 316 346 8 360 355 1 357 334 314 295 235 238 289 295 300 294 297 326 90 358 347 346 338 334 334 332 326 323 321 320 321 324 324
82 78 34 58 86 119 94 75 42 22 82 79 69 86 106 116 114 88 73 90 114 198 179 150 55 40 203 317 85 200 277 26 35 25 54 40 32 18 348 352 344 311 317 305 74 1 317 263 284 300 303 314 67 97 84 55 90 88 54 37 137 124 356 325 306 302 299 286 287 288 287 292 333 74 339 340 337 331 332 335 330 323 321 320 321 322 324 324
72 60 49 81 99 98 89 79 4 30 67 64 80 84 89 104 101 90 77 37 208 219 200 128 222 74 150 246 171 198 269 35 354 21 72 141 77 3 330 344 348 304 299 311 15 351 331 290 310 304 294 275 128 126 93 80 115 107 94 102 150 175 287 273 281 306 302 289 298 297 287 284 292 334 331 331 331 329 331 331 326 321 320 321 323 324 324 324
73 61 54 73 123 103 88 97 124 69 87 116 86 70 71 83 75 68 90 2 25 193 162 90 220 16 57 168 318 324 3 23 11 26 46 157 102 350 337 358 14 1 355 35 351 332 346 41 337 328 330 347 8 297 303 264 286 325 18 115 141 168 247 253 263 282 274 285 303 302 289 291 307 321 325 327 329 329 329 328 324 320 320 323 324 324 324 323
77 65 56 61 93 104 94 111 127 119 147 120 88 43 53 80 60 50 74 77 61 77 79 53 352 2 71 152 146 35 7 353 11 75 47 68 90 295 339 13 29 38 30 6 323 319 334 32 5 0 343 332 323 309 313 319 314 314 307 234 170 173 213 280 289 287 283 297 304 292 285 299 309 316 321 327 331 329 327 326 323 321 322 322 323 323 323 323
82 72 50 55 76 85 84 97 113 117 140 131 102 24 5 97 63 40 64 85 71 72 68 47 341 215 96 70 121 47 10 14 44 93 101 325 108 289 323 3 22 31 24 355 340 338 122 128 32 5 282 279 290 289 297 313 307 294 298 307 304 177 199 283 291 287 295 302 297 285 294 304 309 315 322 329 335 330 326 326 324 323 322 321 321 322 322 322
81 70 29 50 67 71 70 72 81 98 138 153 118 90 21 42 5 18 70 76 53 99 96 61 40 49 2 3 25 335 346 22 72 88 38 286 307 338 318 7 19 13 16 7 3 6 217 224 38 339 262 260 274 283 290 298 290 288 301 308 308 268 189 247 261 280 300 305 295 301 310 309 309 316 323 331 334 329 326 325 323 322 320 319 320 321 321 322
88 92 84 90 80 55 54 57 67 79 86 89 111 134 64 36 4 34 82 357 8 74 151 74 49 42 358 339 11 340 339 13 142 150 149 267 307 339 233 103 33 18 41 33 22 30 236 268 51 290 275 279 280 281 287 287 279 286 300 303 305 297 219 256 267 285 304 302 292 304 311 310 311 316 322 331 332 326 324 324 322 320 319 319 320 322 322 321
112 110 84 85 94 91 98 93 81 78 66 55 83 83 60 82 80 208 259 276 77 42 14 34 27 25 38 241 356 6 349 334 266 239 168 171 298 348 154 160 41 28 44 45 26 31 318 305 55 306 289 293 285 272 279 292 294 298 303 305 315 317 292 292 296 298 300 291 291 302 307 306 311 319 322 326 326 323 323 323 323 320 319 320 321 322 323 323
118 119 109 103 93 73 76 88 80 83 60 33 64 83 131 134 149 229 234 243 65 15 18 33 13 32 81 203 80 80 281 266 277 274 179 139 350 198 90 90 333 24 39 48 13 11 358 1 53 1 291 290 290 290 300 308 306 300 310 7 332 324 323 319 308 302 301 299 302 307 305 303 315 324 322 323 324 324 324 325 325 322 320 321 321 321 322 325
109 117 119 110 87 24 32 55 35 84 55 9 63 159 210 186 196 215 189 187 201 342 1 23 86 94 90 99 114 82 291 281 289 289 186 139 64 101 97 31 296 328 35 43 342 355 3 0 43 358 308 301 328 326 318 320 321 203 2 12 348 340 336 327 315 310 310 310 310 311 311 313 325 327 324 323 325 326 326 326 325 322 320 319 319 320 323 325
109 118 118 106 88 8 13 32 8 58 86 358 85 175 208 185 192 191 164 228 226 260 319 304 162 142 120 133 127 310 299 277 263 281 141 144 114 94 92 83 68 53 90 111 317 8 21 346 341 357 315 308 333 330 313 310 339 123 69 29 6 348 332 321 320 319 315 312 311 313 316 321 325 326 325 324 325 326 326 324 321 318 317 316 316 320 322 323